Temp
70 71 77 78 78 79 77 76 78 79 79 78 79 78 78 80 79 78 74 66 67 69 69 69 68 68 67 66 66 66 66 65 65 65 64 63 64 63 63 62 62 62 62
72 72 75 79 80 81 80 79 80 79 78 78 77 78 78 79 79 78 76 71 65 67 68 69 69 68 67 67 66 66 66 65 65 65 64 63 63 62 62 62 61 61 61
74 73 74 79 80 81 80 80 79 79 78 78 76 77 78 78 79 78 76 74 70 64 66 68 68 68 67 67 66 66 66 65 65 65 64 63 63 62 61 61 61 61 60
73 72 70 71 78 77 80 80 78 77 76 77 76 77 77 78 77 77 78 77 74 74 65 65 66 67 67 67 66 66 66 65 65 64 64 63 63 62 61 61 60 60 60
66 67 67 70 76 78 78 78 77 76 75 76 76 76 76 76 76 78 77 76 75 74 73 64 64 64 65 66 66 67 67 66 65 65 64 63 62 62 61 60 60 60 60
65 67 68 69 78 77 76 76 73 76 76 76 78 75 75 76 76 75 75 76 75 74 74 71 67 67 63 65 66 67 67 66 66 65 64 63 62 62 61 60 60 60 60
66 67 71 72 74 75 71 69 74 73 74 75 74 72 72 73 72 74 74 74 73 72 73 73 71 71 67 64 65 66 67 67 66 66 65 63 62 62 61 61 60 60 60
64 64 67 70 71 71 69 71 72 71 73 73 69 69 63 66 69 69 71 71 70 72 71 71 72 71 72 69 66 65 66 67 67 66 65 63 63 62 61 61 60 60 60
63 65 67 69 70 71 70 70 71 71 68 69 68 69 63 62 67 69 66 69 69 69 72 72 71 72 72 73 67 64 61 63 66 66 65 64 63 62 62 61 61 60 60
64 66 68 69 69 73 69 69 71 70 71 66 67 70 70 68 64 61 66 66 67 69 69 71 72 71 72 73 68 64 58 58 60 65 65 65 64 63 62 62 61 61 61
64 67 70 71 71 71 72 71 69 68 69 69 67 67 65 66 65 62 60 61 68 70 71 71 69 72 71 71 70 64 56 56 57 60 63 65 65 64 63 63 62 62 61
61 63 67 69 70 71 69 68 68 68 69 70 70 69 67 64 63 60 59 58 55 58 63 63 64 69 71 67 65 61 56 53 55 58 60 61 62 63 64 63 63 62 62
61 61 62 63 66 69 70 69 66 67 68 67 67 67 68 68 68 62 56 54 55 57 54 57 61 62 67 67 67 59 56 52 52 54 56 58 59 60 61 62 62 63 64
68 64 64 65 66 67 66 68 69 68 68 66 67 68 69 69 67 65 62 55 52 57 58 56 61 59 59 64 65 55 60 51 51 52 53 55 56 56 57 58 59 60 61
70 68 68 68 69 67 68 66 69 69 68 68 67 67 67 68 68 68 67 61 56 51 53 59 59 60 59 56 54 57 58 57 50 50 50 51 53 54 55 55 56 56 57
71 71 69 69 70 70 70 70 70 70 68 67 67 67 68 69 69 68 65 62 58 54 51 57 55 57 55 55 53 53 55 54 50 48 48 49 50 52 52 52 53 53 54
72 72 71 71 71 71 71 71 70 70 69 69 70 69 69 70 67 65 60 58 57 55 51 56 57 56 53 51 54 54 55 58 58 48 47 48 48 48 48 48 49 49 50
72 72 72 72 72 72 72 71 70 71 70 69 69 69 68 65 59 59 61 57 55 55 51 50 54 53 53 53 55 54 56 60 60 51 47 46 46 46 45 45 45 45 45
71 72 72 71 71 71 72 72 72 71 71 70 70 68 65 59 58 59 58 54 54 53 52 49 50 52 52 46 49 46 48 48 52 48 45 44 44 44 44 44 44 44 44
71 71 72 72 72 72 73 73 73 72 70 70 66 63 62 60 57 55 55 53 52 51 50 48 48 42 39 39 40 39 39 42 42 47 45 43 43 43 44 44 43 43 43
71 72 71 71 71 72 72 71 70 66 64 62 61 53 42 41 39 39 45 48 48 48 46 43 36 36 36 35 36 38 36 36 40 42 41 42 44 43 43 44 44 44 43
71 70 70 70 68 55 39 41 48 53 47 45 43 39 39 38 36 36 35 35 34 37 37 36 34 34 33 34 34 34 33 33 33 40 38 37 41 40 42 45 45 43 43
66 53 48 45 41 41 39 39 39 40 38 37 36 36 35 36 36 37 34 34 33 34 31 34 32 32 32 33 34 34 34 34 35 37 35 33 39 37 42 47 44 43 42
43 41 39 38 37 37 36 36 36 35 34 33 33 34 34 33 34 35 35 33 32 32 33 33 33 34 34 35 35 35 34 34 35 35 36 31 38 37 42 46 45 44 43
37 36 37 36 35 35 35 35 35 33 32 31 33 33 33 32 32 34 34 33 33 32 33 33 33 32 32 32 33 33 32 31 31 33 36 33 35 36 39 41 44 44 42
35 35 34 35 35 34 35 36 36 34 32 31 32 32 31 31 31 32 32 32 32 32 34 34 35 35 33 35 31 32 31 28 28 28 35 30 32 32 31 40 41 42 43
MSLP
1014.06 1014.90 1015.04 1015.36 1016.45 1016.96 1017.81 1018.27 1018.57 1018.57 1019.36 1019.73 1019.98 1020.32 1020.28 1020.21 1020.76 1021.57 1023.09 1023.85 1024.25 1024.43 1024.50 1024.82 1025.25 1025.33 1025.49 1025.67 1026.02 1026.18 1026.42 1026.54 1026.82 1027.01 1027.18 1027.23 1027.26 1027.58 1027.73 1027.89 1027.83 1027.96 1027.92
1014.00 1014.50 1014.92 1014.79 1015.65 1016.33 1017.09 1017.58 1017.81 1018.37 1019.28 1019.78 1020.07 1020.16 1020.31 1020.40 1020.76 1021.55 1022.46 1024.01 1024.39 1024.42 1024.57 1024.87 1025.29 1025.49 1025.56 1025.72 1026.05 1026.31 1026.40 1026.68 1026.66 1026.74 1027.04 1027.21 1027.34 1027.58 1027.78 1027.85 1027.92 1028.01 1028.00
1013.83 1014.30 1014.72 1014.57 1014.84 1015.85 1016.53 1016.95 1017.60 1018.56 1019.05 1019.62 1020.02 1020.14 1020.43 1020.70 1020.99 1021.39 1021.92 1023.39 1024.26 1024.59 1024.72 1024.81 1025.20 1025.38 1025.54 1025.81 1025.97 1026.07 1026.14 1026.58 1026.84 1026.74 1026.92 1027.00 1027.24 1027.40 1027.75 1027.77 1027.93 1027.97 1027.93
1013.63 1014.51 1014.75 1014.59 1014.76 1015.64 1016.23 1016.72 1017.64 1018.46 1018.85 1019.29 1019.82 1020.12 1020.23 1020.79 1021.09 1021.48 1021.41 1022.36 1023.43 1023.91 1024.69 1024.90 1025.10 1025.19 1025.37 1025.41 1025.55 1025.59 1025.97 1026.12 1026.26 1026.67 1026.85 1027.02 1027.08 1027.26 1027.45 1027.53 1027.72 1027.85 1027.84
1014.11 1014.69 1014.94 1014.85 1015.36 1015.81 1016.45 1016.88 1017.68 1018.35 1018.52 1019.07 1019.54 1019.81 1020.10 1020.65 1021.19 1021.13 1021.48 1021.93 1022.52 1023.02 1023.60 1024.43 1024.85 1025.03 1025.18 1025.16 1025.21 1025.30 1025.49 1025.86 1026.09 1026.16 1026.41 1026.72 1026.90 1027.14 1027.33 1027.32 1027.49 1027.57 1027.60
1014.42 1014.78 1014.81 1015.65 1015.81 1016.12 1016.76 1017.20 1017.92 1018.38 1018.50 1018.75 1018.96 1019.54 1020.13 1020.57 1020.67 1021.17 1021.51 1021.79 1022.07 1022.63 1022.82 1023.34 1024.29 1024.48 1024.66 1025.03 1025.07 1025.13 1025.40 1025.53 1025.82 1026.04 1026.28 1026.47 1026.72 1026.82 1027.02 1027.13 1027.30 1027.44 1027.47
1014.25 1014.57 1015.47 1015.77 1016.14 1016.46 1017.11 1017.62 1017.94 1018.43 1018.39 1018.80 1018.95 1019.59 1020.37 1020.65 1021.12 1021.23 1021.41 1021.60 1021.96 1022.41 1022.46 1022.61 1023.10 1023.66 1024.01 1024.43 1024.77 1024.89 1024.71 1024.96 1025.22 1025.44 1025.73 1026.05 1026.26 1026.50 1026.60 1026.72 1026.95 1027.05 1027.20
1013.95 1015.10 1015.18 1015.72 1016.39 1016.64 1017.07 1017.67 1018.01 1018.35 1018.31 1018.92 1019.02 1019.36 1020.10 1020.91 1021.23 1021.40 1021.31 1021.46 1021.56 1021.84 1022.15 1022.41 1022.39 1022.51 1022.59 1023.33 1023.90 1024.23 1024.28 1024.22 1024.51 1024.80 1025.06 1025.57 1025.67 1025.93 1026.22 1026.30 1026.39 1026.67 1026.95
1014.12 1015.06 1015.45 1015.86 1016.11 1016.26 1016.87 1017.63 1017.86 1018.18 1018.37 1019.33 1019.52 1019.14 1019.46 1019.41 1019.64 1020.40 1020.95 1021.11 1021.29 1021.56 1021.48 1021.63 1021.82 1022.01 1021.95 1021.83 1022.39 1023.07 1023.42 1023.69 1023.75 1023.99 1024.22 1024.58 1024.95 1025.12 1025.15 1025.48 1025.69 1025.95 1026.22
1014.48 1015.30 1015.49 1015.51 1015.48 1016.13 1017.04 1017.46 1017.63 1018.02 1018.16 1018.98 1019.72 1019.44 1019.41 1019.61 1019.45 1019.65 1020.27 1020.62 1020.89 1020.89 1021.07 1021.08 1020.99 1021.24 1021.31 1021.33 1021.30 1021.59 1022.12 1022.72 1022.99 1023.08 1023.25 1023.47 1023.67 1024.10 1024.30 1024.53 1024.90 1025.20 1025.37
1014.32 1014.76 1014.79 1014.80 1015.34 1016.16 1016.42 1016.80 1017.36 1017.83 1017.93 1018.33 1018.78 1019.05 1019.49 1019.70 1019.99 1020.19 1019.77 1019.84 1019.92 1020.27 1020.22 1020.00 1020.43 1020.34 1020.52 1020.59 1020.55 1020.84 1020.87 1021.28 1021.87 1022.17 1022.27 1022.49 1022.64 1022.89 1023.23 1023.51 1023.82 1024.12 1024.34
1014.22 1014.68 1014.52 1014.72 1015.15 1015.75 1016.05 1016.62 1016.85 1017.57 1017.81 1018.02 1018.17 1018.27 1018.59 1018.90 1019.17 1019.72 1019.85 1019.95 1020.23 1020.13 1019.74 1019.66 1019.86 1019.39 1019.34 1019.88 1020.18 1019.87 1019.69 1020.26 1020.77 1021.22 1021.35 1021.71 1021.84 1022.03 1022.19 1022.37 1022.57 1022.88 1023.08
1013.87 1014.37 1014.82 1014.95 1015.05 1015.42 1015.78 1015.95 1016.54 1017.20 1017.28 1017.61 1017.81 1017.76 1018.01 1018.15 1018.40 1018.96 1019.50 1019.65 1019.73 1019.86 1019.81 1019.61 1019.31 1018.84 1018.84 1019.04 1019.16 1019.23 1019.23 1019.36 1019.70 1020.07 1020.51 1020.66 1021.04 1021.16 1021.35 1021.35 1021.49 1021.67 1021.80
1012.89 1013.62 1014.16 1014.55 1014.88 1015.16 1015.49 1015.58 1015.93 1016.26 1016.75 1017.06 1017.29 1017.21 1017.29 1017.41 1018.00 1018.43 1018.72 1019.38 1019.27 1018.95 1018.66 1018.68 1018.20 1017.99 1018.10 1017.97 1017.88 1018.52 1018.46 1018.67 1018.80 1019.08 1019.37 1019.46 1019.84 1020.10 1020.41 1020.79 1020.68 1020.85 1021.12
1012.15 1012.83 1013.28 1013.74 1014.20 1014.71 1015.00 1015.16 1015.49 1015.75 1016.03 1016.27 1016.63 1016.65 1016.70 1016.76 1016.99 1017.21 1017.47 1017.97 1018.16 1017.83 1016.52 1016.60 1016.87 1016.78 1016.79 1016.74 1017.52 1018.02 1018.43 1017.66 1017.84 1018.12 1018.27 1018.54 1018.68 1019.21 1019.33 1019.55 1019.82 1019.89 1020.27
1011.56 1012.06 1012.74 1013.29 1013.71 1014.04 1014.40 1014.64 1014.65 1014.88 1015.26 1015.39 1015.70 1015.88 1015.91 1015.84 1015.96 1016.25 1016.74 1017.11 1017.43 1017.33 1015.57 1015.71 1015.17 1015.58 1015.94 1016.16 1016.16 1016.15 1016.83 1016.82 1016.40 1016.45 1016.73 1016.99 1017.61 1017.99 1018.49 1018.83 1019.19 1019.58 1019.73
1010.89 1011.24 1011.89 1012.38 1012.82 1013.16 1013.44 1013.64 1013.79 1014.03 1014.26 1014.38 1014.35 1014.56 1014.56 1014.68 1014.85 1015.16 1015.47 1015.87 1016.07 1015.96 1015.12 1013.95 1014.23 1014.40 1015.12 1015.25 1015.24 1014.59 1015.23 1015.38 1014.91 1014.92 1015.49 1015.82 1016.50 1017.02 1017.60 1017.95 1018.20 1018.68 1019.00
1010.35 1010.81 1011.26 1011.60 1012.01 1012.35 1012.66 1012.83 1012.90 1012.99 1013.19 1013.29 1013.40 1013.65 1013.74 1013.98 1014.37 1014.57 1014.72 1014.75 1014.87 1014.69 1014.85 1013.87 1013.94 1013.79 1013.90 1014.04 1013.93 1013.63 1013.14 1013.79 1014.02 1013.99 1014.78 1015.19 1015.64 1016.20 1016.76 1017.30 1017.69 1017.95 1018.28
1009.98 1010.51 1010.75 1011.03 1011.37 1011.63 1011.85 1012.02 1012.10 1012.25 1012.42 1012.58 1012.69 1012.90 1013.26 1013.90 1013.98 1013.83 1013.89 1013.95 1013.98 1013.87 1014.20 1013.85 1013.28 1013.24 1013.32 1013.66 1013.48 1013.36 1013.33 1013.66 1014.38 1014.74 1015.39 1015.94 1015.77 1015.99 1016.77 1017.13 1017.60 1017.73 1017.88
1009.23 1009.66 1010.00 1010.32 1010.69 1010.94 1011.14 1011.27 1011.34 1011.44 1011.55 1011.83 1012.38 1013.14 1013.25 1012.93 1012.93 1013.07 1013.40 1013.39 1013.38 1013.46 1013.74 1013.59 1013.40 1013.63 1014.09 1014.41 1014.44 1014.61 1014.71 1014.47 1014.36 1014.85 1015.54 1015.92 1016.02 1016.37 1016.40 1016.69 1017.09 1017.24 1017.51
1008.71 1009.14 1009.59 1010.03 1010.42 1010.67 1010.89 1010.83 1010.91 1011.13 1011.47 1011.90 1012.38 1013.26 1014.03 1014.39 1014.59 1014.61 1014.22 1013.80 1013.61 1013.54 1013.57 1013.59 1013.85 1014.19 1014.36 1014.75 1014.85 1014.77 1015.03 1015.19 1015.33 1015.48 1015.64 1015.78 1015.82 1016.12 1015.97 1016.35 1016.52 1016.36 1016.57
1008.50 1009.12 1009.46 1009.86 1010.31 1011.69 1012.19 1011.66 1011.59 1012.16 1013.03 1013.51 1013.97 1014.81 1015.21 1015.47 1015.65 1015.71 1015.66 1015.60 1015.30 1014.85 1014.72 1014.82 1014.97 1015.20 1015.24 1015.68 1015.38 1015.31 1015.53 1015.90 1016.06 1015.97 1015.90 1015.72 1015.87 1016.03 1016.02 1015.67 1015.45 1015.32 1015.28
1008.53 1010.14 1011.23 1011.94 1013.00 1013.45 1013.18 1012.92 1013.17 1013.90 1014.52 1015.11 1015.63 1015.87 1016.43 1016.44 1016.67 1016.67 1016.64 1016.43 1016.30 1016.20 1016.18 1016.07 1016.29 1016.33 1016.29 1016.47 1016.32 1016.25 1016.26 1016.22 1016.11 1016.39 1016.56 1015.87 1015.84 1015.50 1015.21 1014.56 1014.27 1014.33 1014.32
1010.83 1011.83 1012.78 1013.36 1013.97 1014.67 1014.63 1014.56 1014.45 1015.10 1015.84 1016.55 1016.95 1017.14 1017.60 1017.39 1017.52 1017.44 1017.23 1017.21 1017.27 1017.33 1017.27 1017.12 1017.06 1017.13 1017.01 1016.95 1016.85 1016.74 1016.65 1016.48 1016.33 1016.16 1016.31 1015.36 1015.11 1014.59 1014.19 1013.60 1013.29 1013.24 1013.32
1012.58 1013.47 1014.13 1014.61 1015.01 1015.67 1015.71 1015.53 1015.64 1016.38 1016.87 1017.62 1017.99 1018.25 1018.37 1018.41 1018.36 1018.15 1017.87 1017.88 1017.86 1017.96 1018.00 1017.91 1017.85 1017.83 1017.78 1017.66 1017.56 1017.29 1016.87 1016.59 1016.00 1015.66 1015.55 1015.10 1014.47 1014.09 1013.70 1012.98 1012.54 1012.35 1012.34
1013.79 1014.74 1015.28 1015.75 1016.21 1016.60 1016.93 1016.83 1016.95 1017.27 1017.75 1018.42 1018.74 1018.83 1019.04 1019.13 1019.00 1018.78 1018.54 1018.38 1018.20 1018.26 1018.14 1017.95 1017.78 1017.43 1017.68 1017.46 1017.77 1017.67 1017.46 1017.08 1016.70 1015.97 1015.60 1015.52 1014.77 1014.45 1013.22 1012.18 1012.01 1011.80 1011.69
Wind_Speed
10 11 11 12 12 13 13 12 12 10 10 10 8 9 7 6 8 8 8 10 11 13 14 14 14 14 13 13 12 12 12 11 11 11 10 10 12 10 10 9 9 9 9
10 10 11 12 13 12 13 12 12 10 9 9 9 8 7 7 7 11 10 9 9 11 13 14 13 12 12 12 11 11 11 10 9 12 11 11 9 11 8 8 8 7 8
13 11 10 11 11 12 13 11 11 10 10 8 9 8 7 7 6 8 12 10 9 8 9 10 13 12 12 12 12 11 12 11 9 11 12 11 11 10 8 7 7 7 7
13 8 4 5 8 9 9 10 10 10 9 9 8 8 6 7 7 7 8 10 10 9 8 10 11 13 14 14 13 14 13 13 14 13 13 11 11 10 9 9 8 7 6
6 6 3 5 8 8 9 9 9 9 9 9 9 7 7 7 7 7 8 8 11 10 9 14 13 13 14 16 16 16 16 16 15 16 15 14 12 11 11 10 9 8 7
11 6 6 4 10 10 9 9 9 9 9 8 8 8 6 6 6 6 8 8 9 9 9 13 12 12 15 16 17 17 17 16 17 18 16 15 14 14 13 12 11 10 8
13 8 13 11 7 10 9 7 8 10 8 8 7 7 6 4 6 7 7 8 9 11 11 9 9 9 10 16 17 20 20 19 19 19 18 18 17 16 16 15 14 13 12
16 8 7 11 11 8 8 9 9 8 7 6 6 7 5 6 9 9 8 8 9 9 11 12 11 12 10 11 15 20 21 21 22 22 21 21 20 19 18 17 17 15 14
13 11 9 10 10 8 8 10 9 10 8 7 4 4 4 5 7 8 11 9 10 9 9 11 12 13 13 10 17 19 21 19 23 24 24 24 23 23 22 21 20 19 18
15 14 15 11 8 7 10 9 8 8 7 8 6 8 6 2 3 2 8 10 9 11 11 9 11 14 14 11 12 19 23 21 21 23 25 26 26 27 26 25 22 22 22
13 14 12 10 11 12 9 9 9 9 6 6 8 6 6 6 6 5 6 4 9 11 11 11 11 11 14 14 12 13 18 27 25 24 23 24 25 26 27 27 26 26 25
8 10 11 11 10 9 9 8 8 11 9 8 7 7 7 7 8 8 9 8 3 3 6 7 9 12 12 10 14 19 18 21 24 25 25 24 23 22 23 25 27 28 27
9 10 11 9 8 8 8 8 8 10 11 9 9 8 8 9 7 4 2 4 6 6 4 6 10 9 11 11 14 19 15 18 20 22 23 23 23 24 24 25 26 27 27
11 13 13 11 11 10 9 9 8 9 9 10 13 10 8 8 8 9 11 8 7 10 9 11 10 13 11 13 14 14 15 17 19 22 23 24 24 23 23 22 22 22 22
10 14 13 14 14 12 11 10 10 12 11 11 11 12 11 9 10 10 11 10 10 12 14 11 10 12 12 8 9 12 15 20 23 22 22 22 22 22 21 21 19 19 18
13 14 14 15 15 14 15 14 12 12 12 10 10 13 13 11 11 10 10 11 11 13 18 10 10 11 10 10 15 17 18 25 24 26 24 22 21 20 19 18 16 17 17
13 13 15 14 14 14 14 13 13 13 15 15 14 15 16 16 11 10 8 9 13 13 17 13 10 9 11 13 14 16 17 18 14 25 23 21 20 18 16 15 14 14 15
13 12 12 13 13 14 14 16 16 15 16 16 16 16 17 10 8 9 11 14 12 13 12 19 12 10 13 15 16 15 13 13 14 18 20 18 16 14 12 11 11 12 12
14 15 15 15 15 15 15 16 16 17 17 17 16 16 14 11 13 13 12 11 10 10 12 12 13 7 8 2 7 1 4 4 2 9 1 2 4 4 7 8 10 12 12
16 16 15 15 15 16 17 16 17 16 15 14 11 13 18 15 11 10 10 12 10 11 10 9 10 3 1 1 2 1 1 2 2 2 1 4 5 6 7 9 13 13 16
14 15 14 15 15 13 10 14 13 10 10 11 10 6 12 15 19 15 6 7 6 7 6 5 2 2 3 2 3 2 2 2 2 3 4 5 5 6 6 13 18 21 25
13 13 13 12 8 8 13 11 7 7 10 9 8 9 10 14 16 20 21 23 18 5 4 3 3 2 3 3 2 1 2 2 2 3 3 4 5 5 7 10 14 14 11
5 11 12 13 13 12 19 19 17 11 11 11 10 9 9 9 10 9 13 15 17 19 13 6 5 5 3 4 3 2 2 1 1 1 2 7 6 9 9 13 16 15 16
13 11 13 13 13 11 17 19 20 14 13 13 12 11 9 10 10 7 7 8 8 8 8 5 5 4 3 2 2 2 3 4 5 5 6 9 7 10 10 10 14 14 18
14 13 12 13 14 12 17 16 15 11 12 12 11 10 10 10 15 14 7 7 5 5 6 7 7 7 7 6 6 5 5 6 7 6 4 6 8 10 10 11 10 17 16
14 11 14 14 18 14 18 17 12 7 10 7 8 10 16 12 14 14 7 7 6 6 6 6 3 2 4 3 3 4 5 7 7 7 2 5 5 5 5 7 11 9 8
Wind_Direction
158 164 165 153 162 167 167 164 172 165 170 161 155 166 174 137 128 126 150 150 160 158 153 154 157 155 150 145 145 143 145 143 141 137 135 134 122 118 115 102 94 91 84
162 161 174 160 163 164 175 170 176 159 171 170 167 168 167 150 173 144 140 165 168 167 167 165 168 165 160 160 162 168 159 160 162 166 156 149 140 134 127 119 112 105 94
162 164 173 167 163 157 172 176 152 171 174 172 169 164 171 167 172 177 143 160 172 180 176 179 178 179 177 178 180 180 185 180 179 164 164 165 163 155 151 141 133 123 113
162 162 178 159 155 156 168 166 168 172 166 177 167 172 174 180 176 190 175 165 175 180 182 186 188 188 193 191 191 191 191 193 188 185 180 177 177 175 168 162 160 153 136
144 145 131 122 159 163 171 166 176 178 168 178 172 171 177 183 184 182 206 188 178 189 182 177 194 200 203 205 203 202 200 201 199 189 190 191 188 187 187 180 179 174 162
167 165 120 197 185 169 172 168 171 184 178 181 178 170 179 194 178 200 207 203 202 203 200 179 197 209 207 212 211 209 208 204 205 204 201 200 198 195 193 192 193 193 186
171 167 177 172 185 175 170 170 173 191 179 177 177 157 186 196 201 218 211 211 209 208 218 210 192 212 196 210 215 217 212 208 208 207 205 205 205 203 201 202 204 204 204
154 189 154 165 187 168 166 173 182 182 176 168 196 162 193 199 218 222 217 223 218 219 218 221 217 213 212 193 211 220 221 214 213 212 209 211 211 210 213 213 213 216 218
154 184 193 178 187 169 166 180 182 186 165 185 225 192 207 225 196 196 211 218 217 219 227 218 221 230 229 215 194 202 214 224 218 216 215 214 217 217 216 220 221 222 224
174 184 189 185 167 166 179 186 175 191 197 189 199 244 276 1 309 153 199 212 231 224 223 239 225 224 234 229 233 198 196 213 224 223 219 219 219 223 222 221 225 227 228
173 188 195 181 171 205 185 175 183 202 191 210 193 200 233 243 238 269 274 210 208 221 228 219 230 250 223 230 226 236 194 204 212 221 227 228 226 228 230 226 227 229 231
169 188 192 185 175 188 184 183 181 205 212 220 239 206 216 214 222 228 245 243 236 274 240 226 236 235 237 231 231 233 196 197 210 218 221 228 232 236 236 231 232 233 235
177 182 178 184 183 187 193 191 199 219 212 223 228 234 238 237 237 229 226 252 244 232 247 240 238 237 237 236 234 227 216 203 205 212 220 223 229 233 236 238 242 246 245
182 175 189 190 200 202 205 210 216 228 227 233 235 236 243 238 225 233 241 230 255 240 233 235 230 224 229 230 230 232 232 217 211 213 217 220 224 227 229 234 236 242 247
184 188 196 206 215 216 214 222 237 236 235 230 238 239 240 240 242 234 227 227 235 259 255 243 241 218 219 218 225 238 241 228 216 215 215 217 217 219 220 221 223 226 233
193 183 186 195 201 208 217 223 230 231 238 237 238 241 244 241 244 245 228 230 234 247 267 249 221 217 205 215 221 217 228 232 213 209 209 207 210 212 217 217 220 226 230
197 197 194 202 213 219 225 229 230 233 236 241 237 240 244 245 241 237 229 228 240 241 252 259 248 220 223 219 227 217 223 230 222 203 204 205 209 210 213 216 219 227 236
209 210 217 223 224 226 229 234 237 237 240 248 253 253 253 253 251 240 245 247 243 243 245 257 253 235 231 226 230 227 212 225 232 200 203 203 205 209 211 217 223 228 235
213 219 221 223 229 235 237 237 238 243 246 248 255 258 263 253 250 249 247 245 246 248 245 251 258 257 245 275 244 330 226 201 12 35 59 221 187 201 229 236 242 241 238
215 222 225 230 232 236 238 241 244 242 245 251 252 255 254 250 259 262 257 253 250 247 244 245 253 244 176 34 67 66 351 32 79 218 250 296 330 301 280 262 254 257 253
220 224 228 233 237 241 249 258 253 249 253 254 251 18 47 43 41 35 352 322 293 250 245 245 188 192 164 180 209 164 130 40 354 278 251 248 236 234 249 257 258 253 248
222 228 235 239 249 40 344 14 23 30 45 38 47 54 50 45 52 50 47 48 45 3 13 358 21 357 31 0 24 65 93 167 237 217 256 254 256 255 253 246 243 245 226
202 50 57 65 58 45 40 58 69 66 66 57 54 59 51 48 43 45 44 43 43 46 45 35 47 24 35 16 16 28 25 353 304 302 318 263 238 253 249 244 240 243 235
72 74 66 64 64 50 56 66 71 72 68 62 62 59 60 53 40 41 47 48 46 41 35 40 50 46 50 20 3 333 309 287 273 250 245 264 245 252 261 266 254 251 255
76 72 72 73 71 61 57 67 79 81 80 72 61 56 57 51 36 26 38 35 41 54 59 57 50 32 15 5 2 320 291 282 274 265 244 259 255 260 263 264 260 250 242
86 83 76 67 69 67 57 63 71 78 78 76 70 64 50 42 31 24 22 11 10 22 1 343 327 290 253 281 233 254 298 292 295 295 319 330 330 325 278 256 253 262 269